Terminal Aerodrome Forecast
Issued by NWS

Home | Current Version | Previous Version | Text Only | Print | Product List | Glossary On
Versions: 1 2 3 4 5 6 7 8 9 10 11 12 13 14
000
FTUS44 KSJT 282300
TAFBBD
TAF
KBBD 282320Z 2900/2924 08006KT P6SM SCT080
     FM290200 11005KT P6SM FEW100
     FM291600 12006KT P6SM SCT120=

USA.gov is the U.S. government's official web portal to all federal, state and local government web resources and services.